Waarnemingen

Advertentie
Mijn weer
Ahaus, Duitsland (10309): temperatuur & dauwpunt: 16.02.2017 11:00:00 - 22.02.2017 11:00:00 (CET)Ahaus, Duitsland (10309): temperatuur 5cm & temperatuur -5cm: 16.02.2017 11:00:00 - 22.02.2017 11:00:00 (CET)Ahaus, Duitsland (10309): temperatuur -20cm & temperatuur -100cm: 16.02.2017 11:00:00 - 22.02.2017 11:00:00 (CET)Ahaus, Duitsland (10309): windsnelheid & windstoten: 16.02.2017 11:00:00 - 22.02.2017 11:00:00 (CET)Ahaus, Duitsland (10309): windrichting: 16.02.2017 11:00:00 - 22.02.2017 11:00:00 (CET)Ahaus, Duitsland (10309): luchtdruk: 16.02.2017 11:00:00 - 22.02.2017 11:00:00 (CET)Ahaus, Duitsland (10309): zicht: 16.02.2017 11:00:00 - 22.02.2017 11:00:00 (CET)Ahaus, Duitsland (10309): Zonneschijnduur: 16.02.2017 11:00:00 - 22.02.2017 11:00:00 (CET)Ahaus, Duitsland (10309): neerslag: 16.02.2017 11:00:00 - 22.02.2017 11:00:00 (CET)
Datum & Tijd tt [°C] td [°C] tt 5cm [°C] tt -5cm [°C] tt -20cm [°C] tt -100cm [°C] ff [km/u] ff [kn] fx [km/u] fx [kn] dd ppp [hPa] vv [km] sd [min] rr [mm]
22.02.2017 11:00:00 10,1 9,1 9,6 8,8 7,3 5,4 23 13 51 28 WZW 1004,8 11 0 0,4
22.02.2017 10:00:00 9,8 9,2 9,3 8,6 7,2 5,4 25 14 51 28 WZW 1004,7 6 0 0,6
22.02.2017 09:00:00 9,7 9,2 9,1 8,4 7,2 5,4 25 13 53 29 WZW 1004,6 4,4 0 0,9
22.02.2017 08:00:00 9,3 9,0 8,8 8,2 7,1 5,4 23 13 48 26 WZW 1004,7 2,6 0 1,7
22.02.2017 07:00:00 9,4 8,7 8,7 8,3 7,1 5,3 27 15 51 28 ZW 1004,5 3,7 0 1,1
22.02.2017 06:00:00 9,9 8,8 9,0 8,3 7,0 5,3 27 14 61 33 WZW 1005,2 3,5 0 0,2
22.02.2017 05:00:00 10,6 8,3 10,2 8,3 6,9 5,3 30 16 50 27 WZW 1005,4 14 0 0,0
22.02.2017 04:00:00 10,7 8,6 10,3 8,3 6,8 5,3 27 14 50 27 WZW 1006,2 9 0 0,0
22.02.2017 03:00:00 10,7 8,8 10,2 8,3 6,7 5,3 25 13 46 25 WZW 1006,9 9 0 0,0
22.02.2017 02:00:00 10,5 9,4 9,8 8,1 6,6 5,3 22 12 43 23 WZW 1007,5 7 0 0,0
22.02.2017 01:00:00 10,0 9,5 9,4 7,8 6,6 5,3 26 14 44 24 ZW 1008,6 6 0 0,1
22.02.2017 00:00:00 9,7 9,2 9,1 7,3 6,5 5,3 26 14 38 21 ZW 1009,3 5 0 0,3
21.02.2017 23:00:00 8,7 8,3 8,1 6,7 6,6 5,2 17 9 27 14 ZZW 1010,6 3,7 0 0,0
21.02.2017 22:00:00 7,9 6,0 7,4 6,0 6,7 5,2 18 10 27 15 ZZW 1011,8 13 0 0,0
21.02.2017 21:00:00 6,3 4,0 4,9 5,5 7,0 5,2 11 6 16 8 ZZW 1012,6 17 0 0,0
21.02.2017 20:00:00 6,4 3,9 4,4 5,9 7,2 5,2 9 5 15 8 ZW 1013,3 22 0 0,0
21.02.2017 19:00:00 6,8 4,1 4,1 6,8 7,5 5,2 8 4 16 9 ZW 1014,1 26 0 0,0
21.02.2017 18:00:00 8,8 4,5 6,9 8,0 7,5 5,2 9 5 21 12 ZW 1014,1 26 6 0,0
21.02.2017 17:00:00 10,0 4,1 9,6 9,4 7,5 5,2 17 9 27 15 W 1014,3 39 31 0,0
21.02.2017 16:00:00 9,8 4,1 9,8 9,5 7,4 5,2 11 6 34 18 W 1014,5 33 2 0,0
21.02.2017 15:00:00 10,3 4,5 11,7 10,4 7,2 5,2 21 11 36 19 W 1014,8 29 16 0,0
21.02.2017 14:00:00 10,2 3,7 11,2 11,0 6,9 5,1 23 13 41 22 W 1014,9 26 45 0,0
21.02.2017 13:00:00 9,7 4,4 10,5 9,7 6,6 5,1 23 12 37 20 W 1014,9 24 18 0,0
21.02.2017 12:00:00 9,0 5,5 9,4 8,9 6,5 5,1 18 10 29 16 WNW 1015,0 26 2 0,0
21.02.2017 11:00:00 8,8 6,1 9,4 8,1 6,4 5,1 19 11 29 16 W 1014,8 25 1 0,0
21.02.2017 10:00:00 8,2 6,1 8,3 7,3 6,3 5,1 19 10 30 16 W 1014,3 22 8 0,0
21.02.2017 09:00:00 7,7 6,1 7,4 6,5 6,4 5,1 14 7 24 13 W 1014,0 17 9 0,0
21.02.2017 08:00:00 7,8 6,3 7,1 6,5 6,5 5,1 16 9 32 17 W 1013,4 14 0 0,0
21.02.2017 07:00:00 7,9 6,6 7,2 6,5 6,6 5,1 17 9 28 15 W 1013,0 15 0 0,0
21.02.2017 06:00:00 8,1 6,1 7,3 7,0 6,7 5,1 18 10 35 19 W 1012,9 23 0 0,0
21.02.2017 05:00:00 8,7 7,3 8,2 7,6 6,8 5,1 19 11 29 16 W 1012,7 16 0 0,0
21.02.2017 04:00:00 9,0 7,5 8,4 7,8 6,8 5,0 17 9 31 17 W 1012,5 23 0 0,0
21.02.2017 03:00:00 9,6 8,5 9,1 8,3 6,8 5,0 19 10 31 17 W 1012,4 15 0 0,0
21.02.2017 02:00:00 10,1 9,2 9,5 8,5 6,8 5,0 19 10 35 19 W 1012,4 9 0 0,0
21.02.2017 01:00:00 10,1 9,9 9,6 8,6 6,7 5,0 16 9 30 16 W 1012,4 4,4 0 0,3
21.02.2017 00:00:00 10,3 10,2 9,9 8,6 6,7 5,0 20 11 31 17 W 1012,5 2,0 0 0,3
20.02.2017 23:00:00 10,4 10,4 10,0 8,6 6,6 5,0 16 9 30 16 W 1012,6 1,9 0 1,2
20.02.2017 22:00:00 10,5 10,4 10,1 8,6 6,4 5,0 16 9 34 18 W 1012,7 2,4 0 2,4
20.02.2017 21:00:00 10,4 10,3 10,0 8,4 6,3 5,0 16 9 40 21 WZW 1012,6 1,9 0 0,4
20.02.2017 20:00:00 10,2 10,1 9,9 8,3 6,2 5,0 18 10 41 22 WZW 1012,9 3,7 0 0,0
20.02.2017 19:00:00 9,9 9,9 9,6 8,2 6,1 5,0 19 10 36 19 WZW 1013,3 3,3 0 0,0
20.02.2017 18:00:00 9,8 9,8 9,5 8,2 6,0 5,0 22 12 37 20 WZW 1013,0 4,8 0 0,2
20.02.2017 17:00:00 9,6 9,5 9,3 8,2 5,9 5,0 18 10 36 19 WZW 1012,9 3,4 0 0,1
20.02.2017 16:00:00 9,4 9,4 9,2 8,2 5,7 5,0 19 10 39 21 ZW 1013,0 3,1 0 0,1
20.02.2017 15:00:00 9,4 9,0 9,2 8,0 5,5 5,0 21 11 40 21 WZW 1013,8 7 0 0,0
20.02.2017 14:00:00 9,0 8,8 8,8 7,7 5,3 5,0 21 11 43 23 ZW 1014,2 6 0 0,0
20.02.2017 13:00:00 8,8 8,5 8,6 7,5 5,2 5,0 23 13 37 20 ZW 1015,0 3,8 0 0,2
20.02.2017 12:00:00 8,6 8,2 8,3 7,0 5,0 5,0 21 11 43 23 ZW 1015,6 3,9 0 0,0
20.02.2017 11:00:00 8,1 7,8 7,8 6,6 4,9 5,0 20 11 37 20 ZW 1015,8 4,9 0 0,0
20.02.2017 10:00:00 7,5 7,4 7,3 6,2 4,8 5,0 23 12 38 20 ZW 1016,3 3,2 0 0,1
20.02.2017 09:00:00 7,3 7,1 7,0 5,9 4,7 5,0 21 12 41 22 ZW 1016,7 3,8 0 0,0
20.02.2017 08:00:00 7,1 7,0 6,7 5,7 4,6 5,0 17 9 29 16 ZW 1017,4 2,8 0 0,1
20.02.2017 07:00:00 7,1 6,8 6,7 5,5 4,6 4,9 13 7 30 16 ZW 1017,9 2,0 0 0,0
20.02.2017 06:00:00 7,1 6,4 6,6 5,4 4,5 4,9 16 9 28 15 ZW 1017,8 2,7 0 0,0
20.02.2017 05:00:00 7,0 6,2 6,6 5,2 4,5 4,9 12 6 24 13 ZW 1018,6 3,1 0 0,0
20.02.2017 04:00:00 6,7 5,9 6,2 5,0 4,5 4,9 13 7 25 13 ZW 1018,7 3,8 0 0,0
20.02.2017 03:00:00 6,5 5,7 6,0 4,9 4,4 4,9 13 7 21 12 ZW 1019,3 3,9 0 0,0
20.02.2017 02:00:00 6,2 5,9 5,7 4,9 4,4 4,9 13 7 22 12 ZW 1020,0 2,1 0 0,0
20.02.2017 01:00:00 6,1 5,8 5,6 4,8 4,4 4,9 11 6 21 11 ZW 1020,5 2,0 0 0,0
20.02.2017 00:00:00 6,1 5,9 5,6 4,8 4,4 4,9 10 5 20 11 ZW 1020,6 2,0 0 0,0
19.02.2017 23:00:00 6,2 5,8 5,7 4,7 4,4 4,9 10 5 17 9 WZW 1020,7 2,2 0 0,0
19.02.2017 22:00:00 6,2 5,9 5,6 4,7 4,3 4,9 10 5 18 10 ZW 1020,8 2,0 0 0,0
19.02.2017 21:00:00 6,3 6,0 5,4 4,7 4,4 4,9 9 5 19 10 ZW 1020,8 2,2 0 0,0
19.02.2017 20:00:00 6,0 5,8 5,4 4,5 4,4 4,9 6 3 13 7 WZW 1020,7 1,9 0 0,0
19.02.2017 19:00:00 6,3 5,8 5,2 5,0 4,3 4,9 8 4 16 9 ZW 1020,3 2,4 0 0,0
19.02.2017 18:00:00 6,5 5,9 6,1 5,2 4,2 4,9 10 5 21 12 ZW 1020,0 2,7 0 0,0
19.02.2017 17:00:00 6,1 5,9 6,0 5,2 4,1 4,9 10 6 20 11 WZW 1019,8 1,7 0 0,0
19.02.2017 16:00:00 5,6 5,5 5,6 5,1 4,0 4,9 12 6 23 12 ZW 1019,7 1,6 0 0,0
19.02.2017 15:00:00 5,2 4,9 5,2 4,9 3,8 4,8 14 8 24 13 ZW 1019,6 2,0 0 0,1
19.02.2017 14:00:00 4,8 4,6 4,8 4,6 3,7 4,8 11 6 23 13 ZW 1020,0 1,9 0 0,3
19.02.2017 13:00:00 4,4 4,1 4,3 4,2 3,6 4,8 13 7 24 13 ZW 1020,6 1,6 0 0,5
19.02.2017 12:00:00 4,5 3,7 4,1 4,0 3,5 4,8 12 6 31 17 ZW 1020,9 2,4 0 0,3
19.02.2017 11:00:00 4,7 2,8 4,3 3,8 3,4 4,8 16 9 37 20 ZW 1020,9 6 0 0,0
19.02.2017 10:00:00 4,5 2,2 4,3 3,2 3,3 4,8 17 9 34 19 ZW 1021,0 8 0 0,0
19.02.2017 09:00:00 4,1 1,7 3,7 2,6 3,3 4,8 18 10 28 15 ZW 1021,2 8 0 0,0
19.02.2017 08:00:00 3,4 1,5 2,9 2,1 3,3 4,8 16 9 25 14 ZZW 1021,3 7 0 0,0
19.02.2017 07:00:00 3,6 1,3 2,7 1,9 3,4 4,8 18 10 25 13 ZZW 1021,4 8 0 0,0
19.02.2017 06:00:00 2,8 1,0 1,9 1,7 3,5 4,7 14 8 22 12 ZZW 1021,9 8 0 0,0
19.02.2017 05:00:00 2,5 0,8 1,4 1,6 3,6 4,7 15 8 24 13 ZZW 1022,3 8 0 0,0
19.02.2017 04:00:00 2,6 0,6 1,5 1,4 3,8 4,7 15 8 21 11 ZZW 1022,7 8 0 0,0
19.02.2017 03:00:00 2,6 0,4 0,7 1,3 4,0 4,7 13 7 20 11 ZZW 1023,4 8 0 0,0
19.02.2017 02:00:00 2,3 0,3 0,3 1,5 4,3 4,7 12 7 16 9 ZZW 1024,1 6 0 0,0
19.02.2017 01:00:00 2,6 0,4 -0,5 1,7 4,6 4,7 9 5 15 8 Z 1024,5 6 0 0,0
19.02.2017 00:00:00 2,8 0,6 0,2 2,1 4,9 4,7 10 5 13 7 ZZW 1024,7 4,8 0 0,0
18.02.2017 23:00:00 3,1 1,0 -1,9 2,5 5,2 4,7 5 3 11 6 ZZW 1024,9 4,8 0 0,0
18.02.2017 22:00:00 3,2 1,0 -1,3 3,1 5,5 4,6 6 3 11 6 Z 1025,2 6 0 0,0
18.02.2017 21:00:00 2,3 0,9 -0,3 3,8 5,8 4,6 7 4 10 6 Z 1025,4 10 0 0,0
18.02.2017 20:00:00 4,6 1,4 0,0 4,7 6,1 4,6 5 3 10 5 ZZW 1025,9 18 0 0,0
18.02.2017 19:00:00 6,1 1,7 2,6 5,8 6,3 4,6 6 4 16 8 ZZW 1026,0 21 0 0,0
18.02.2017 18:00:00 8,1 2,1 7,0 7,2 6,3 4,6 10 6 21 11 ZW 1026,0 21 0 0,0
18.02.2017 17:00:00 8,5 2,8 8,1 7,9 6,3 4,6 8 5 19 10 WZW 1026,0 20 0 0,0
18.02.2017 16:00:00 8,7 3,2 8,6 8,6 6,2 4,6 8 5 17 9 W 1026,4 20 0 0,0
18.02.2017 15:00:00 8,9 3,1 9,0 9,5 6,0 4,6 11 6 23 12 WZW 1026,5 18 0 0,0
18.02.2017 14:00:00 9,1 3,3 9,9 10,9 5,5 4,6 12 6 24 13 ZW 1026,9 26 40 0,0
18.02.2017 13:00:00 8,9 4,6 10,8 10,3 5,1 4,6 5 3 13 7 ZW 1027,5 19 41 0,0
18.02.2017 12:00:00 7,3 4,5 8,9 8,8 4,7 4,5 6 3 9 5 Z 1028,0 12 33 0,0
18.02.2017 11:00:00 5,5 3,8 6,2 6,5 4,6 4,5 4 2 8 5 Z 1028,1 12 0 0,0
18.02.2017 10:00:00 4,8 3,5 5,2 5,3 4,5 4,5 2 1 6 4 Z 1028,0 10 0 0,0
18.02.2017 09:00:00 4,1 3,3 4,2 4,6 4,6 4,5 3 1 5 3 OZO 1028,0 10 0 0,0
18.02.2017 08:00:00 4,0 3,5 3,7 4,4 4,6 4,5 3 2 7 4 NO 1027,9 9 0 0,0
18.02.2017 07:00:00 4,0 3,5 3,8 4,5 4,7 4,5 5 3 11 6 N 1027,7 10 0 0,0
18.02.2017 06:00:00 4,3 3,7 4,0 4,7 4,7 4,5 8 5 15 8 NW 1027,7 12 0 0,0
18.02.2017 05:00:00 4,8 4,1 4,5 4,9 4,7 4,5 11 6 17 9 NW 1027,4 11 0 0,0
18.02.2017 04:00:00 5,3 5,0 5,0 4,9 4,8 4,5 8 5 13 7 NW 1027,5 8 0 0,0
18.02.2017 03:00:00 5,4 5,0 5,0 4,9 4,8 4,5 6 3 9 5 W 1027,7 5 0 0,0
18.02.2017 02:00:00 5,1 4,5 4,7 5,0 4,8 4,4 3 1 5 3 WZW 1027,8 8 0 0,0
18.02.2017 01:00:00 5,2 4,5 4,7 5,0 4,9 4,4 3 2 8 4 N 1027,8 10 0 0,0
18.02.2017 00:00:00 5,4 4,6 4,8 5,1 4,9 4,4 5 3 7 4 ZW 1027,7 10 0 0,0
17.02.2017 23:00:00 5,5 4,0 4,9 5,2 5,0 4,4 5 3 17 9 WNW 1027,8 15 0 0,0
17.02.2017 22:00:00 5,9 5,1 5,4 5,5 5,1 4,4 9 5 16 9 NNW 1027,7 10 0 0,0
17.02.2017 21:00:00 6,3 5,5 5,7 5,7 5,1 4,4 12 6 19 10 WNW 1027,1 10 0 0,0
17.02.2017 20:00:00 6,5 5,9 6,0 5,9 5,1 4,4 11 6 22 12 WNW 1026,8 11 0 0,0
17.02.2017 19:00:00 6,7 6,0 6,2 6,2 5,1 4,4 12 7 17 9 W 1026,3 14 0 0,0
17.02.2017 18:00:00 6,9 6,0 6,3 6,6 5,1 4,4 13 7 21 11 WNW 1025,5 12 0 0,0
17.02.2017 17:00:00 7,1 6,4 6,9 7,1 4,9 4,4 9 5 26 14 WNW 1025,2 18 0 0,1
17.02.2017 16:00:00 7,4 6,3 7,2 7,4 4,7 4,3 15 8 31 17 WNW 1024,9 11 0 0,0
17.02.2017 15:00:00 7,2 6,2 7,1 7,3 4,5 4,3 17 9 27 15 WNW 1024,4 9 1 0,0
17.02.2017 14:00:00 7,2 6,5 7,4 6,6 4,4 4,3 16 9 29 15 WNW 1024,2 15 0 0,3
17.02.2017 13:00:00 6,9 6,6 7,0 6,2 4,2 4,3 15 8 29 15 W 1024,0 3,1 0 0,0
17.02.2017 12:00:00 6,9 6,2 6,8 5,9 4,0 4,3 17 9 31 17 W 1024,1 6 0 0,0
17.02.2017 11:00:00 6,5 6,2 6,4 5,3 3,9 4,3 18 10 29 16 W 1023,7 3,9 0 0,8
17.02.2017 10:00:00 6,1 5,8 5,9 4,8 3,9 4,3 12 7 28 15 W 1023,6 2,4 0 0,5
17.02.2017 09:00:00 5,9 5,6 5,5 4,5 3,8 4,3 14 7 30 16 WZW 1023,4 2,9 0 0,5
17.02.2017 08:00:00 5,9 5,3 5,4 4,3 3,8 4,3 12 7 27 14 WZW 1023,2 3,6 0 0,3
17.02.2017 07:00:00 5,5 5,2 5,0 4,1 3,7 4,3 15 8 26 14 ZW 1023,3 2,4 0 0,5
17.02.2017 06:00:00 5,4 4,9 4,9 3,9 3,7 4,3 12 7 26 14 WZW 1023,8 3,0 0 0,1
17.02.2017 05:00:00 5,2 4,6 4,9 3,7 3,7 4,2 12 7 25 14 ZW 1024,1 3,4 0 0,0
17.02.2017 04:00:00 5,3 4,7 4,8 3,6 3,8 4,2 12 7 23 12 ZW 1024,4 3,5 0 0,0
17.02.2017 03:00:00 5,3 4,6 4,7 3,3 3,9 4,2 11 6 22 12 ZW 1025,0 4,5 0 0,0
17.02.2017 02:00:00 5,3 4,8 4,1 3,3 4,0 4,2 11 6 22 12 ZW 1025,4 3,6 0 0,0
17.02.2017 01:00:00 5,2 4,8 3,9 3,5 4,1 4,2 9 5 21 11 ZW 1025,9 3,2 0 0,0
17.02.2017 00:00:00 5,1 4,8 4,1 3,4 4,2 4,2 9 5 17 9 ZW 1026,2 3,2 0 0,0
16.02.2017 23:00:00 5,3 4,7 3,9 3,7 4,4 4,2 8 4 19 11 ZW 1026,8 4,5 0 0,0
16.02.2017 22:00:00 5,7 5,1 4,3 4,1 4,5 4,2 8 4 16 9 WZW 1027,1 3,9 0 0,0
16.02.2017 21:00:00 6,4 5,1 4,8 4,5 4,7 4,2 10 5 20 11 W 1027,0 5 0 0,0
16.02.2017 20:00:00 5,8 4,5 4,5 4,9 4,9 4,2 8 4 11 6 ZW 1027,3 8 0 0,0
16.02.2017 19:00:00 5,7 4,4 3,0 5,4 5,0 4,2 6 3 17 9 ZZW 1027,5 9 0 0,0
16.02.2017 18:00:00 7,3 4,7 5,9 6,7 5,0 4,2 12 6 35 19 WZW 1027,7 10 0 0,0
16.02.2017 17:00:00 8,7 5,5 8,3 7,9 4,8 4,2 21 11 32 17 W 1027,6 11 1 0,0
16.02.2017 16:00:00 9,5 5,8 9,6 8,6 4,4 4,2 16 9 27 14 WZW 1027,8 8 11 0,0
16.02.2017 15:00:00 9,7 5,9 10,8 9,1 4,0 4,2 18 10 28 15 ZW 1028,2 8 50 0,0
16.02.2017 14:00:00 9,6 6,0 10,0 8,4 3,6 4,2 13 7 30 16 WZW 1028,8 8 40 0,0
16.02.2017 13:00:00 9,6 5,9 10,3 8,0 3,1 4,1 15 8 24 13 WZW 1029,2 11 54 0,0
16.02.2017 12:00:00 9,0 6,3 9,5 6,8 2,7 4,1 13 7 27 14 WZW 1029,9 9 58 0,0
16.02.2017 11:00:00 8,4 6,2 8,5 5,1 2,4 4,1 14 8 24 13 ZW 1030,1 9 60 0,0

tt = temperatuur
td = dauwpunt
tt 5cm = temperatuur 5cm
tt -5cm = temperatuur -5cm
tt -20cm = temperatuur -20cm
tt -100cm = temperatuur -100cm
ff = windsnelheid
fx = windstoten
dd = windrichting
ppp = luchtdruk
vv = zicht
sd = Zonneschijnduur
rr = neerslag

Weerstations in de omgeving